View from above orbital plane
|
View from above satellite
|
Ground track
|
The orbit data is extracted from the following two-line orbital elements,
1 12792U 81084B 21018.77135586 .00000041 00000-0 22389-4 0 9999
2 12792 74.0299 140.6772 0012517 109.2785 250.9724 14.37606455 63200
Epoch (UTC): | 18 January 2021 18:30:45 |
Eccentricity: | 0.0012517 |
inclination: | 74.0299° |
perigee height: | 757 km |
apogee height: | 775 km |
right ascension of ascending node: | 140.6772° |
argument of perigee: | 109.2785° |
revolutions per day: | 14.37606455 |
mean anomaly at epoch: | 250.9724° |
orbit number at epoch: | 6320 |
The dashed part of the orbit path shows where the satellite is in the earth's shadow,
|
|